Starlink 11350

operational
NORAD ID: 61540 Int'l Des: 2024-184 Owner: SPXS Country: US Constellation: starlink
LEOCIRCULAR

Über Starlink 11350

Beschreibung wird geladen...

Live-Position

3D-Globus wird geladen...

Nächste Überflüge

Höhenverlauf

Altitude vs Time

uPlot chart will show altitude changes over time

Zweizeiliger Elementsatz

1 61540U 24184J 25352.07407287 -.00001548 00000-0 -79131-5 0 9993
2 61540 53.1611 278.2330 0001500 73.3954 286.7229 15.69707751 67600
Epoch: 18. Dez. 2025 • Age: 19 hours

Aktueller Status

Höhe 378.8 km
Geschwindigkeit 7.68 km/s
Subsatellitenpunkt -52.11°S, 121.45°E
Startdatum 15. Okt. 2024
Alter 1.1 years
Typ internet

Technische Details

Klassifizierung Payload
Masse 960.00 kg
Trockenmasse 910.00 kg
Gesamtmasse 960.00 kg
Länge 0.30 m
Durchmesser 4.10 m
Spannweite 29.00 m
Form Box + pan
Hersteller SPXS
Bus-Typ Starlink V2MD
Phasenstatus In Orbit
Besitzer/Staat SPXS/US

Große Konstellationen

Loading constellations...